Regional Weather Roundup
Issued by NWS

Home | Current Version | Previous Version | Text Only | Print | Product List | Glossary On
Versions: 1 2 3 4 5 6 7 8 9 10 11 12 13 14 15 16 17 18 19 20 21 22 23 24 25 26 27 28 29 30 31 32 33 34 35 36 37 38 39 40 41 42 43 44 45 46 47 48 49 50
000
ASPQ40 PGUM 272214
RWRPQ
WEATHER ROUNDUP FOR THE MARIANAS AND MICRONESIA
NATIONAL WEATHER SERVICE TIYAN GU
800 AM CHST THU MAY 28 2015

GUZ001>004-272300-
MARIANA ISLANDS-

CITY           SKY/WX    TMP DP  RH WIND       PRES   REMARKS
GUAM AIRPORT   PTSUNNY   79  79 100 E5        29.87R
ANDERSEN AFB   CLOUDY    79  75  89 SE13      29.87R
ROTA AIRPORT   NOT AVBL
TINIAN AP      NOT AVBL
SAIPAN AP      MOSUNNY   81  75  83 SE9G20    29.87R

$$

PMZ161-272300-
REPUBLIC OF PALAU-

CITY           SKY/WX    TMP DP  RH WIND       PRES   REMARKS
KOROR AP       MOSUNNY   79  77  94 CALM      29.85R
KOROR WSO      MOSUNNY   82  77  83 SE3       29.84R HX  91

$$

PMZ171>174-272300-
FEDERATED STATES OF MICRONESIA-

CITY           SKY/WX    TMP DP  RH WIND       PRES   REMARKS
YAP AIRPORT    MOSUNNY   82  77  83 CALM      29.82R HX  91
CHUUK AP       MOSUNNY   84  79  84 VRB5      29.85R HX  96
POHNPEI AP     CLOUDY    84  77  79 SE7       29.87  HX  94
POHNPEI WSO    CLOUDY    86  77  74 E3        29.92S HX  97
KOSRAE AP      PTSUNNY   84  73  70 SE9       29.92  HX  91

$$

PMZ181-272300-
REPUBLIC OF THE MARSHALL ISLANDS-

CITY           SKY/WX    TMP DP  RH WIND       PRES   REMARKS
KWAJALEIN AP   SUNNY     82  73  74 E6        29.93S
MAJURO AP      NOT AVBL
MAJURO WSO     PTSUNNY   82  77  83 SE5       29.90R HX  91

$$



USA.gov is the U.S. government's official web portal to all federal, state and local government web resources and services.